TimeEDT,TemperatureF,Dew PointF,Humidity,Sea Level PressureIn,VisibilityMPH,Wind Direction,Wind SpeedMPH,Gust SpeedMPH,PrecipitationIn,Events,Conditions,WindDirDegrees,DateUTC
12:15 AM,36.9,13.8,39,30.11,10.0,North,-9999.0,-,N/A,,Clear,0,2013-03-20 04:15:00
12:35 AM,33.4,19.8,57,30.11,10.0,North,-9999.0,-,N/A,,Clear,0,2013-03-20 04:35:00
12:55 AM,33.1,19.4,57,30.11,10.0,North,-9999.0,-,N/A,,Clear,0,2013-03-20 04:55:00
1:15 AM,32.9,17.6,53,30.11,10.0,North,-9999.0,-,N/A,,Clear,0,2013-03-20 05:15:00
1:35 AM,33.1,18.7,56,30.11,10.0,North,-9999.0,-,N/A,,Clear,0,2013-03-20 05:35:00
1:55 AM,32.9,18.9,56,30.11,10.0,North,-9999.0,-,N/A,,Clear,0,2013-03-20 05:55:00
2:15 AM,35.2,15.4,44,30.12,10.0,North,-9999.0,-,N/A,,Clear,0,2013-03-20 06:15:00
2:35 AM,36.5,14.7,41,30.11,10.0,North,-9999.0,-,N/A,,Clear,0,2013-03-20 06:35:00
2:55 AM,35.6,15.6,44,30.12,10.0,North,-9999.0,-,N/A,,Clear,0,2013-03-20 06:55:00
3:15 AM,35.2,15.8,45,30.11,10.0,North,-9999.0,-,N/A,,Clear,0,2013-03-20 07:15:00
3:35 AM,32.4,18.3,56,30.10,10.0,North,-9999.0,-,N/A,,Clear,0,2013-03-20 07:35:00
3:55 AM,32.5,19.4,58,30.10,10.0,North,-9999.0,-,N/A,,Clear,0,2013-03-20 07:55:00
4:15 AM,31.8,20.7,63,30.10,10.0,North,-9999.0,-,N/A,,Clear,0,2013-03-20 08:15:00
4:35 AM,30.2,22.5,73,30.09,10.0,North,-9999.0,-,N/A,,Clear,0,2013-03-20 08:35:00
4:55 AM,29.1,22.6,77,30.09,10.0,North,-9999.0,-,N/A,,Clear,0,2013-03-20 08:55:00
5:15 AM,28.9,22.8,78,30.09,10.0,North,-9999.0,-,N/A,,Clear,0,2013-03-20 09:15:00
5:35 AM,28.0,22.8,81,30.09,10.0,North,-9999.0,-,N/A,,Clear,0,2013-03-20 09:35:00
5:55 AM,27.5,22.6,82,30.09,10.0,North,-9999.0,-,N/A,,Clear,0,2013-03-20 09:55:00
6:15 AM,27.1,23.0,84,30.10,10.0,North,-9999.0,-,N/A,,Clear,0,2013-03-20 10:15:00
6:35 AM,26.6,23.0,86,30.10,10.0,North,-9999.0,-,N/A,,Clear,0,2013-03-20 10:35:00
6:55 AM,26.4,23.0,87,30.10,10.0,North,-9999.0,-,N/A,,Clear,0,2013-03-20 10:55:00
7:15 AM,25.7,23.0,89,30.10,10.0,North,-9999.0,-,N/A,,Clear,0,2013-03-20 11:15:00
7:35 AM,25.3,23.0,91,30.10,10.0,North,-9999.0,-,N/A,,Clear,0,2013-03-20 11:35:00
7:55 AM,25.5,22.6,89,30.10,10.0,North,-9999.0,-,N/A,,Clear,0,2013-03-20 11:55:00
8:15 AM,25.5,22.6,89,30.10,10.0,North,-9999.0,-,N/A,,Clear,0,2013-03-20 12:15:00
8:35 AM,26.1,22.6,87,30.10,10.0,North,-9999.0,-,N/A,,Clear,0,2013-03-20 12:35:00
8:55 AM,27.9,23.5,84,30.11,10.0,North,-9999.0,-,N/A,,Clear,0,2013-03-20 12:55:00
9:15 AM,32.4,20.8,63,30.10,10.0,North,-9999.0,-,N/A,,Clear,0,2013-03-20 13:15:00
9:35 AM,36.5,19.2,50,30.10,10.0,North,-9999.0,-,N/A,,Clear,0,2013-03-20 13:35:00
9:55 AM,37.9,19.4,47,30.11,10.0,North,-9999.0,-,N/A,,Clear,0,2013-03-20 13:55:00
10:15 AM,39.6,19.8,45,30.10,10.0,North,-9999.0,-,N/A,,Clear,0,2013-03-20 14:15:00
10:35 AM,40.1,19.6,44,30.09,10.0,North,-9999.0,-,N/A,,Clear,0,2013-03-20 14:35:00
10:55 AM,41.2,18.1,40,30.08,10.0,North,-9999.0,-,N/A,,Clear,0,2013-03-20 14:55:00
11:15 AM,42.4,16.7,35,30.07,10.0,North,-9999.0,-,N/A,,Clear,0,2013-03-20 15:15:00
11:55 AM,44.1,14.4,30,30.06,10.0,North,-9999.0,-,N/A,,Clear,0,2013-03-20 15:55:00
12:15 PM,45.5,16.2,31,30.04,10.0,North,-9999.0,-,N/A,,Clear,0,2013-03-20 16:15:00
1:15 PM,46.9,15.8,29,30.01,10.0,North,-9999.0,-,N/A,,Clear,0,2013-03-20 17:15:00
1:35 PM,47.8,15.4,27,30.00,10.0,North,-9999.0,-,N/A,,Clear,0,2013-03-20 17:35:00
1:55 PM,48.2,16.2,28,29.98,10.0,North,-9999.0,-,N/A,,Scattered Clouds,0,2013-03-20 17:55:00
2:15 PM,48.6,15.6,27,29.98,10.0,North,-9999.0,-,N/A,,Scattered Clouds,0,2013-03-20 18:15:00
2:35 PM,49.3,16.0,27,29.96,10.0,North,-9999.0,-,N/A,,Scattered Clouds,0,2013-03-20 18:35:00
2:55 PM,48.6,15.1,26,29.94,10.0,North,-9999.0,-,N/A,,Scattered Clouds,0,2013-03-20 18:55:00
3:15 PM,51.3,15.3,24,29.92,10.0,North,-9999.0,-,N/A,,Mostly Cloudy,0,2013-03-20 19:15:00
3:55 PM,49.8,15.1,25,29.91,10.0,North,-9999.0,-,N/A,,Scattered Clouds,0,2013-03-20 19:55:00
4:15 PM,49.3,15.6,26,29.89,10.0,North,-9999.0,-,N/A,,Scattered Clouds,0,2013-03-20 20:15:00
4:35 PM,49.1,15.3,26,29.89,10.0,North,-9999.0,-,N/A,,Mostly Cloudy,0,2013-03-20 20:35:00
4:55 PM,50.0,16.5,26,29.87,10.0,North,-9999.0,-,N/A,,Scattered Clouds,0,2013-03-20 20:55:00
5:15 PM,49.6,17.2,28,29.86,10.0,North,-9999.0,-,N/A,,Mostly Cloudy,0,2013-03-20 21:15:00
5:35 PM,48.0,17.1,29,29.85,10.0,North,-9999.0,-,N/A,,Scattered Clouds,0,2013-03-20 21:35:00
5:55 PM,47.7,17.2,30,29.85,10.0,North,-9999.0,-,N/A,,Mostly Cloudy,0,2013-03-20 21:55:00
6:15 PM,46.6,18.1,32,29.85,10.0,North,-9999.0,-,N/A,,Overcast,0,2013-03-20 22:15:00
6:35 PM,46.6,18.3,32,29.84,10.0,North,-9999.0,-,N/A,,Overcast,0,2013-03-20 22:35:00
6:55 PM,45.9,18.9,34,29.84,10.0,North,-9999.0,-,N/A,,Mostly Cloudy,0,2013-03-20 22:55:00
7:15 PM,45.5,19.4,35,29.84,10.0,North,-9999.0,-,N/A,,Overcast,0,2013-03-20 23:15:00
7:35 PM,44.6,20.3,38,29.84,10.0,North,-9999.0,-,N/A,,Overcast,0,2013-03-20 23:35:00
7:55 PM,44.2,20.7,39,29.84,10.0,North,-9999.0,-,N/A,,Overcast,0,2013-03-20 23:55:00
8:15 PM,42.3,27.0,55,29.87,7.0,North,-9999.0,-,N/A,,Unknown,0,2013-03-21 00:15:00
8:35 PM,40.3,30.4,68,29.89,5.0,North,-9999.0,-,N/A,,Unknown,0,2013-03-21 00:35:00
8:55 PM,36.9,32.9,86,29.90,1.5,North,-9999.0,-,N/A,Snow,Light Snow,0,2013-03-21 00:55:00
9:15 PM,35.1,33.8,95,29.91,1.0,North,-9999.0,-,N/A,Snow,Snow,0,2013-03-21 01:15:00
9:35 PM,34.9,33.8,96,29.92,2.5,North,-9999.0,-,N/A,Snow,Light Snow,0,2013-03-21 01:35:00
9:55 PM,34.7,31.8,89,29.91,7.0,North,-9999.0,-,N/A,Snow,Light Snow,0,2013-03-21 01:55:00
10:15 PM,34.5,32.0,90,29.92,7.0,North,-9999.0,-,N/A,Snow,Light Snow,0,2013-03-21 02:15:00
10:35 PM,34.0,31.8,92,29.91,10.0,North,-9999.0,-,N/A,Snow,Light Snow,0,2013-03-21 02:35:00
10:55 PM,33.8,32.2,94,29.92,7.0,North,-9999.0,-,N/A,Snow,Light Snow,0,2013-03-21 02:55:00
11:15 PM,33.8,30.6,88,29.91,5.0,North,-9999.0,-,N/A,Snow,Light Snow,0,2013-03-21 03:15:00
11:35 PM,33.8,29.3,84,29.91,10.0,North,-9999.0,-,N/A,,Overcast,0,2013-03-21 03:35:00
11:55 PM,33.6,23.9,68,29.91,10.0,North,-9999.0,-,N/A,,Overcast,0,2013-03-21 03:55:00